Orbital Elements at Epoch 2459200.5 (2020-Dec-17.0) TDB
Reference: JPL 19 (heliocentric ecliptic J2000)
Element | Value | Uncertainty (1-sigma) | Units |
e | .08574864408896009 | 4.607e-08 | |
a | 2.655910219576851 | 1.5257e-08 | au |
q | 2.428169519426124 | 1.2184e-07 | au |
i | 2.228410884333376 | 4.3654e-06 | deg |
node | 265.4688438651419 | 0.00012835 | deg |
peri | 42.52564782564042 | 0.00013117 | deg |
M | 118.9962333653363 | 2.6113e-05 | deg |
tp | 2458677.924282054555 (2019-Jul-13.42428205) | 0.00011451 | TDB |
period | 1580.951372492449 4.33 | 1.3623e-05 3.73e-08 | d yr |
n | .2277109886260714 | 1.9621e-09 | deg/d |
Q | 2.883650919727579 | 1.6565e-08 | au |
|
| | Orbit Determination Parameters
Additional Information
|